Location: Newark
(48.5667°N, 7.8167°E)
Time: 01:25:53
(UTC+00:00)

ISS - Pass Details

Date: 26 September 2021
Orbit: 417 x 423 km, 51.6° (Epoch: 19 October)

Event Time Altitude Azimuth Distance (km) Brightness Sun altitude
Rises 18:56:23 0° 284° (WNW) 2,365 1.9 -16.9°
Reaches altitude 10° 18:58:31 10° 290° (WNW) 1,502 0.4 -17.2°
Maximum altitude 19:01:49 51° 7° (N) 539 -3.2 -17.8°
Enters shadow 19:02:34 41° 51° (NE) 627 -3.2 -17.9°
